[[{"header":{"parameterUnit":"m.s-1","parameterCategory":1,"la1":30.2992,"la2":30.254,"lo1":-89.0895,"lo2":-89.0443,"dy":0.0025,"dx":0.0025,"nx":19,"ny":19,"refTime":"2026-03-13T21:00:00:Z","depth":0,"parameterNumber":2,"parameterNumberName":"U-component_of_WINDS"},"data":[0,0,0,-2.7776,-2.7777,-2.7802,-2.7802,-2.7863,-2.7864,0,0,0,0,0,0,0,0,0,0,0,-2.7786,-2.7787,-2.7776,-2.7777,-2.7802,-2.7802,-2.7863,-2.7864,0,0,0,0,0,0,0,0,0,0,0,-2.7786,-2.7787,-2.7788,-2.7777,-2.7802,-2.7802,-2.7863,-2.7834,0,0,0,0,0,0,0,0,0,0,-2.7804,-2.7831,-2.7787,-2.7788,-2.7777,-2.7802,-2.7802,-2.7832,-2.7835,-2.7864,0,-2.7895,0,-2.788,-2.787,-2.787,0,0,0,-2.7764,-2.7828,-2.7819,-2.7788,-2.7778,-2.7802,-2.7787,-2.7833,-2.7838,-2.787,-2.7895,-2.7897,-2.7881,-2.787,-2.7871,-2.8081,-2.8083,0,0,-2.7763,-2.78,-2.7816,-2.7822,-2.782,-2.7786,-2.7788,-2.7835,-2.7866,-2.7895,-2.7898,-2.7882,-2.7871,-2.7872,-2.808,-2.8082,0,0,0,-2.7767,-2.78,-2.7789,-2.7821,-2.7823,-2.7787,-2.7789,-2.7864,-2.7857,-2.7898,-2.7883,-2.7872,-2.7873,-2.8078,-2.808,-2.8196,0,0,0,-2.7766,-2.7802,-2.7789,-2.7812,-2.7823,-2.7844,-2.7817,-2.7854,-2.7858,-2.7883,-2.7872,-2.7874,-2.8076,-2.8079,-2.8189,-2.8245,0,0,0,-2.7779,-2.7804,-2.7813,-2.7814,-2.7826,-2.7842,-2.7837,-2.7854,-2.785,-2.787,-2.7874,-2.8075,-2.8079,-2.8183,-2.8235,-2.8312,0,0,0,-2.7803,-2.7916,-2.7816,-2.7936,-2.7826,-2.7913,-2.7837,-2.79,-2.7931,-2.7872,-2.8076,-2.808,-2.8181,-2.8228,-2.8306,-2.8385,-2.8422,0,0,-2.7966,-2.7937,-2.8005,-2.7916,-2.803,-2.7906,-2.8038,-2.8031,-2.7998,-2.8055,-2.806,-2.8191,-2.8234,-2.8311,-2.861,-2.8639,0,0,0,-2.8069,-2.8119,-2.8141,-2.8172,-2.817,-2.8172,-2.8141,-2.8138,-2.8185,-2.8035,-2.8238,-2.8263,-2.8306,-2.8343,-2.8367,-2.8403,-2.8098,-2.8098,-2.8097,-2.8356,-2.8308,-2.8417,-2.8373,-2.8404,-2.8371,-2.8392,-2.8383,-2.8325,-2.8374,-2.8392,-2.8578,-2.8622,-2.8641,-2.8679,-2.8428,-2.8429,-2.8429,-2.8429,-2.8592,-2.8655,-2.8575,-2.8653,-2.8602,-2.8666,-2.8639,-2.8596,-2.8649,-2.8561,-2.8597,-2.8507,-2.8674,-2.8705,-2.8438,-2.8436,-2.8435,-2.8434,-2.8434,-2.8776,-2.8798,-2.8792,-2.8833,-2.887,-2.882,-2.8875,-2.8826,-2.878,-2.8816,-2.8829,-2.8827,-2.882,-2.8825,-2.8826,-2.8826,-2.8827,-2.8827,-2.8828,-2.8969,-2.8959,-2.9011,-2.9018,-2.9031,-2.9043,-2.9011,-2.9023,-2.9025,-2.8985,-2.8985,-2.8924,-2.8699,-2.8644,-2.8838,-2.8836,-2.8835,-2.8834,-2.8833,-2.9229,-2.9162,-2.9243,-2.9257,-2.9261,-2.9301,-2.9237,-2.9267,-2.927,-2.9299,-2.9229,-2.9071,-2.9037,-2.9017,-2.8972,-2.9238,-2.9238,-2.9238,-2.9238,-2.9386,-2.9363,-2.9435,-2.9461,-2.948,-2.943,-2.9524,-2.95,-2.9464,-2.9464,-2.9417,-2.9353,-2.9334,-2.9312,-2.9285,-2.9242,-2.9572,-2.9572,-2.9572,-2.9544,-2.9521,-2.961,-2.9574,-2.9573,-2.9573,-2.966,-2.9694,-2.9639,-2.9585,-2.9462,-2.9448,-2.9343,-2.9311,-2.9255,-2.9215,-2.9135,0,0]},{"header":{"parameterUnit":"m.s-1","parameterCategory":1,"la1":30.2992,"la2":30.254,"lo1":-89.0895,"lo2":-89.0443,"dy":0.0025,"dx":0.0025,"nx":19,"ny":19,"refTime":"2026-03-13T21:00:00:Z","depth":0,"parameterNumber":3,"parameterNumberName":"V-component_of_WINDS"},"data":[0,0,0,3.1803,3.1806,3.1934,3.1934,3.2092,3.2093,0,0,0,0,0,0,0,0,0,0,0,3.1766,3.1767,3.1803,3.1806,3.1934,3.1934,3.2092,3.2093,0,0,0,0,0,0,0,0,0,0,0,3.1765,3.1767,3.1768,3.1807,3.1934,3.1934,3.2091,3.1996,0,0,0,0,0,0,0,0,0,0,3.1873,3.184,3.1766,3.1768,3.1807,3.1933,3.1934,3.1992,3.2002,3.2033,0,3.2064,0,3.2081,3.2104,3.2104,0,0,0,3.1805,3.1831,3.1865,3.1768,3.1809,3.1933,3.1876,3.1997,3.2009,3.2047,3.2066,3.2072,3.2084,3.2105,3.2106,3.2294,3.2295,0,0,3.1798,3.1788,3.1857,3.1873,3.1857,3.1872,3.188,3.2005,3.2024,3.2067,3.2076,3.2087,3.2106,3.2107,3.2293,3.2294,0,0,0,3.1778,3.1783,3.1815,3.1867,3.189,3.1875,3.1885,3.2018,3.2029,3.2077,3.2088,3.2107,3.2109,3.2292,3.2293,3.2329,0,0,0,3.1774,3.1772,3.1812,3.1807,3.1888,3.1957,3.1895,3.2021,3.2035,3.2088,3.2107,3.211,3.2291,3.2293,3.2326,3.2347,0,0,0,3.1757,3.177,3.1789,3.1806,3.1861,3.1955,3.1973,3.2024,3.2042,3.2105,3.2111,3.229,3.2292,3.2324,3.2343,3.2392,0,0,0,3.1736,3.182,3.179,3.1888,3.186,3.1978,3.1973,3.206,3.2119,3.2108,3.2291,3.2293,3.2323,3.234,3.2389,3.243,3.2447,0,0,3.1837,3.1832,3.189,3.1867,3.1988,3.1959,3.2084,3.2146,3.2159,3.2247,3.2252,3.2327,3.2342,3.2391,3.255,3.2564,0,0,0,3.1919,3.196,3.1994,3.205,3.2101,3.2144,3.2187,3.2209,3.2285,3.2204,3.236,3.2369,3.2398,3.2418,3.2429,3.2453,3.2303,3.2303,3.2303,3.2047,3.206,3.2156,3.2185,3.2239,3.2282,3.2326,3.2362,3.2361,3.2397,3.2422,3.2518,3.2541,3.255,3.2574,3.2448,3.2448,3.2448,3.2448,3.2193,3.2252,3.2248,3.2339,3.2351,3.2427,3.247,3.2466,3.2535,3.2501,3.2526,3.2485,3.2564,3.2586,3.2451,3.245,3.245,3.245,3.245,3.2276,3.2307,3.2334,3.2414,3.2473,3.2498,3.2565,3.2575,3.2583,3.2609,3.2635,3.2634,3.2632,3.2621,3.2622,3.2622,3.2622,3.2623,3.2623,3.2351,3.238,3.2436,3.2495,3.253,3.2578,3.2621,3.2655,3.2694,3.2695,3.2695,3.2687,3.2571,3.254,3.2628,3.2627,3.2626,3.2626,3.2626,3.2489,3.2459,3.2546,3.2582,3.265,3.2706,3.2717,3.2785,3.2814,3.2846,3.2832,3.2746,3.2741,3.2732,3.2706,3.2832,3.2832,3.2832,3.2832,3.2557,3.2556,3.2646,3.2701,3.2757,3.2775,3.2868,3.2901,3.2929,3.2947,3.2931,3.2898,3.2888,3.2888,3.2876,3.2851,3.3012,3.3012,3.3012,3.2642,3.2646,3.2725,3.2755,3.2808,3.2852,3.2938,3.2999,3.3025,3.302,3.296,3.2953,3.29,3.2883,3.2874,3.2855,3.281,0,0]}]]